DELTA 4 R/B, 37233

Orbit data source: Space-Track

DELTA 4 R/B, 37233 is space debris in GEO originally from a launch on Sun, 21 Nov 2010 UTC launched from the Air Force Eastern Test Range (AFETR). Debris objects in space refer to the collection of defunct objects orbiting the Earth. Examples of debris include non-operational satellites, rocket bodies, and fragments generated from explosions, collisions, or faulty payload assembly.

Not visible in the next 10 days
Identifier
37233, 2010-063B
Orbit
GEO
Country
Flag of USUS
Related business
Flag of USUnited Launch Alliance/Lockheed Martin (US)
Manufacturer
ULA Decatur
Mission
Spacecraft
Bus & Motor
DCSS-5, RL10B-2
Mass
3,450 kg wet, 3,450 kg dry
Launch date (UTC)
2010-11-21 (16 years ago)
Launch vehicle
Unknown
Launch site
Air Force Eastern Test Range (AFETR)
Object type
Payload
Rocket body
Debris
Shape & HBR
Cyl + 1 Nozzle, 6.8 m
Radar Cross Section
64.942 m², Medium (>0.1 m² and < 1m²)

Expand to show TLE details & history
Last TLE update: 6 days ago

TLE from 6 days ago
0 DELTA 4 R/B
1 37233U 10063B   26154.55159291 -.00000031  00000-0  00000-0 0  9998
2 37233   9.3783  81.6409 0211445  66.2193 295.8216  1.04038355 26169
Epoch: 2026-06-03T13:14Z
TLE epoch observation values (Epoch: 2026-06-03T13:14:17.627Z)
Latitude
Longitude
-9.0893°
Altitude
34,397.109 km
Speed
3.14 km/s
True Right ascension
05h 25m 58s
True Declination
0° 00' 00"
Sunlit
Object was in daylight at epoch
Visualization orbit readout
Latitude
Unknown
Longitude
Unknown
Altitude
Unknown
Speed
Unknown
Apparent Right ascension
Unknown
Apparent Declination
Unknown
Sunlit
N/A
Visualization observer readout
Local Sidereal Time
07:00:48
Azimuth
Unknown
Elevation
Unknown
Doppler factor
Unknown
Orbital elements
Apogee altitude
35,633.653 km
Perigee altitude
33,893.804 km
Semi-major axis
41,141.866 km
Eccentricity
0.02114
Inclination
9.3783°
RAAN
81.6409°
Arg. of periapsis
66.2193°
True anomaly
293.6157°
Mean anomaly
295.8216°
Eccentric anomaly
294.72114°
Mean motion
0.26009 °/min
Orbital period
1,384.16 mins
BSTAR
0
Loading maneuver chart data...
Computing Atmospheric mass density...
Loading historical data...
Loading historical data...
Loading historical data...
Loading historical data...
Loading historical data...
Loading historical data...
Loading historical data...
Other satellites on launch #63 in the year 2010 (2010-11-21 UTC)

Documentation

Showing up to 5 results
|